Hourly Weather Valencia

Today, 13 June, Sunday

Time Temperature Precipitation Wind Pressure Humidity
00:00 +23°C° 0 mm 1 mps 718 mmHg 80%
01:00 +23°C° 0 mm 1 mps 718 mmHg 81%
02:00 +23°C° 0 mm 1 mps 718 mmHg 82%
03:00 +21°C° 0 mm 0 mps 718 mmHg 83%
04:00 +21°C° 0 mm 0 mps 718 mmHg 84%
05:00 +24°C° 0 mm 1 mps 718 mmHg 83%
06:00 +24°C° 0 mm 1 mps 719 mmHg 82%
07:00 +25°C° 0 mm 1 mps 719 mmHg 80%
08:00 +26°C° 0 mm 1 mps 720 mmHg 76%
09:00 +27°C° 0 mm 1 mps 720 mmHg 71%
10:00 +28°C° 0 mm 1 mps 720 mmHg 67%
11:00 +29°C° 0 mm 2 mps 719 mmHg 65%
12:00 +29°C° 0 mm 2 mps 719 mmHg 63%
13:00 +30°C° 0 mm 2 mps 718 mmHg 60%
14:00 +30°C° 0.1 mm 2 mps 718 mmHg 61%
15:00 +30°C° 0.1 mm 1 mps 718 mmHg 62%
16:00 +30°C° 0.1 mm 1 mps 717 mmHg 62%
17:00 +28°C° 0 mm 1 mps 717 mmHg 71%
18:00 +26°C° 0 mm 1 mps 718 mmHg 79%
19:00 +24°C° 0 mm 1 mps 718 mmHg 88%
20:00 +24°C° 0 mm 1 mps 718 mmHg 89%
21:00 +24°C° 0 mm 1 mps 719 mmHg 90%
22:00 +23°C° 0 mm 1 mps 719 mmHg 91%
23:00 +23°C° 0 mm 1 mps 719 mmHg 91%

Tomorrow, 14 June, Monday

Time Temperature Precipitation Wind Pressure Humidity
00:00 +23°C° 0 mm 1 mps 718 mmHg 91%
01:00 +23°C° 0 mm 1 mps 718 mmHg 90%
02:00 +21°C° 0 mm 0 mps 718 mmHg 90%
03:00 +21°C° 0 mm 0 mps 718 mmHg 90%
04:00 +21°C° 0 mm 0 mps 718 mmHg 89%
05:00 +22°C° 0 mm 0 mps 718 mmHg 85%
06:00 +23°C° 0 mm 0 mps 719 mmHg 81%
07:00 +24°C° 0 mm 0 mps 719 mmHg 77%
08:00 +26°C° 0 mm 0 mps 719 mmHg 69%
09:00 +29°C° 0 mm 1 mps 720 mmHg 62%
10:00 +31°C° 0 mm 1 mps 720 mmHg 54%
11:00 +31°C° 0.1 mm 1 mps 719 mmHg 54%
12:00 +32°C° 0.1 mm 1 mps 718 mmHg 53%
13:00 +32°C° 0.1 mm 1 mps 718 mmHg 52%
14:00 +30°C° 0.4 mm 1 mps 718 mmHg 61%
15:00 +29°C° 0.4 mm 1 mps 717 mmHg 69%
16:00 +28°C° 0.4 mm 1 mps 717 mmHg 78%
17:00 +26°C° 0.5 mm 1 mps 718 mmHg 83%
18:00 +25°C° 0.5 mm 1 mps 718 mmHg 88%
19:00 +24°C° 0.5 mm 1 mps 719 mmHg 92%
20:00 +24°C° 0.1 mm 1 mps 719 mmHg 93%
21:00 +24°C° 0.1 mm 1 mps 719 mmHg 93%
22:00 +23°C° 0.1 mm 1 mps 719 mmHg 93%
23:00 +21°C° 0.2 mm 0 mps 719 mmHg 93%

Day after tomorrow, 15 June, Tuesday

Time Temperature Precipitation Wind Pressure Humidity
00:00 +21°C° 0.2 mm 0 mps 719 mmHg 92%
01:00 +21°C° 0.2 mm 0 mps 718 mmHg 92%
02:00 +21°C° 0.3 mm 0 mps 718 mmHg 92%
03:00 +21°C° 0.3 mm 0 mps 718 mmHg 92%
04:00 +21°C° 0.3 mm 0 mps 718 mmHg 93%
05:00 +22°C° 0 mm 0 mps 719 mmHg 90%
06:00 +23°C° 0 mm 0 mps 719 mmHg 88%
07:00 +24°C° 0 mm 0 mps 720 mmHg 86%
08:00 +27°C° 0.5 mm 1 mps 720 mmHg 80%
09:00 +28°C° 0.5 mm 1 mps 720 mmHg 74%
10:00 +29°C° 0.5 mm 1 mps 720 mmHg 69%
11:00 +30°C° 0.5 mm 1 mps 719 mmHg 67%
12:00 +30°C° 0.5 mm 1 mps 719 mmHg 65%
13:00 +31°C° 0.5 mm 1 mps 719 mmHg 64%
14:00 +30°C° 0.7 mm 1 mps 718 mmHg 69%
15:00 +29°C° 0.7 mm 1 mps 718 mmHg 75%
16:00 +28°C° 0.7 mm 1 mps 718 mmHg 80%
17:00 +27°C° 0.5 mm 1 mps 718 mmHg 85%
18:00 +26°C° 0.5 mm 1 mps 718 mmHg 89%
19:00 +24°C° 0.5 mm 1 mps 719 mmHg 94%
20:00 +24°C° 0.1 mm 1 mps 719 mmHg 95%
21:00 +24°C° 0.1 mm 1 mps 719 mmHg 95%
22:00 +23°C° 0.1 mm 1 mps 720 mmHg 96%
23:00 +23°C° 0.1 mm 1 mps 719 mmHg 96%

16 June, Wednesday

Time Temperature Precipitation Wind Pressure Humidity
00:00 +21°C° 0.1 mm 0 mps 719 mmHg 95%
01:00 +21°C° 0.1 mm 0 mps 718 mmHg 95%
02:00 +21°C° 0 mm 0 mps 718 mmHg 95%
03:00 +21°C° 0 mm 0 mps 718 mmHg 95%
04:00 +21°C° 0 mm 0 mps 718 mmHg 95%
05:00 +21°C° 0 mm 0 mps 719 mmHg 92%
06:00 +22°C° 0 mm 0 mps 719 mmHg 90%
07:00 +23°C° 0 mm 0 mps 720 mmHg 88%
08:00 +27°C° 0 mm 1 mps 720 mmHg 78%
09:00 +28°C° 0 mm 1 mps 720 mmHg 68%
10:00 +30°C° 0 mm 1 mps 720 mmHg 59%
11:00 +30°C° 0 mm 2 mps 720 mmHg 56%
12:00 +31°C° 0 mm 2 mps 719 mmHg 53%
13:00 +32°C° 0 mm 2 mps 719 mmHg 50%
14:00 +30°C° 0.1 mm 2 mps 718 mmHg 57%
15:00 +29°C° 0.1 mm 1 mps 718 mmHg 65%
16:00 +28°C° 0.1 mm 1 mps 718 mmHg 72%
17:00 +27°C° 0.2 mm 1 mps 718 mmHg 76%
18:00 +26°C° 0.2 mm 1 mps 718 mmHg 79%
19:00 +25°C° 0.2 mm 1 mps 718 mmHg 83%
20:00 +24°C° 0.1 mm 1 mps 719 mmHg 84%
21:00 +24°C° 0.1 mm 1 mps 719 mmHg 86%
22:00 +23°C° 0.1 mm 1 mps 719 mmHg 88%
23:00 +23°C° 0.1 mm 1 mps 719 mmHg 88%

17 June, Thursday

Time Temperature Precipitation Wind Pressure Humidity
00:00 +23°C° 0.1 mm 1 mps 719 mmHg 88%
01:00 +23°C° 0.1 mm 1 mps 718 mmHg 88%
02:00 +23°C° 0 mm 1 mps 718 mmHg 91%
03:00 +23°C° 0 mm 1 mps 718 mmHg 93%
04:00 +22°C° 0 mm 1 mps 719 mmHg 95%
05:00 +23°C° 0 mm 1 mps 719 mmHg 92%
06:00 +24°C° 0 mm 1 mps 719 mmHg 89%
07:00 +25°C° 0 mm 1 mps 719 mmHg 86%
08:00 +26°C° 0.1 mm 1 mps 720 mmHg 80%
09:00 +27°C° 0.1 mm 1 mps 720 mmHg 75%
10:00 +29°C° 0.1 mm 2 mps 720 mmHg 69%
11:00 +29°C° 0.3 mm 2 mps 720 mmHg 70%
12:00 +29°C° 0.3 mm 2 mps 719 mmHg 71%
13:00 +29°C° 0.3 mm 2 mps 719 mmHg 73%
14:00 +28°C° 0.7 mm 2 mps 718 mmHg 78%
15:00 +27°C° 0.7 mm 2 mps 718 mmHg 83%
16:00 +26°C° 0.7 mm 1 mps 718 mmHg 88%
17:00 +25°C° 0.1 mm 1 mps 718 mmHg 91%
18:00 +25°C° 0.1 mm 1 mps 718 mmHg 93%
19:00 +24°C° 0.1 mm 1 mps 718 mmHg 95%
20:00 +24°C° 0 mm 1 mps 719 mmHg 96%
21:00 +24°C° 0 mm 1 mps 719 mmHg 96%
22:00 +23°C° 0 mm 1 mps 719 mmHg 96%
23:00 +23°C° 0 mm 1 mps 719 mmHg 96%

18 June, Friday

Time Temperature Precipitation Wind Pressure Humidity
00:00 +23°C° 0 mm 1 mps 719 mmHg 97%
01:00 +23°C° 0 mm 1 mps 718 mmHg 97%
02:00 +23°C° 0 mm 1 mps 718 mmHg 97%
03:00 +23°C° 0 mm 1 mps 719 mmHg 97%
04:00 +23°C° 0 mm 1 mps 719 mmHg 96%
05:00 +23°C° 0 mm 1 mps 719 mmHg 94%
06:00 +24°C° 0 mm 1 mps 720 mmHg 92%
07:00 +25°C° 0 mm 1 mps 720 mmHg 90%
08:00 +26°C° 0.2 mm 1 mps 720 mmHg 85%
09:00 +27°C° 0.2 mm 2 mps 720 mmHg 80%
10:00 +28°C° 0.2 mm 2 mps 720 mmHg 76%
11:00 +28°C° 0.5 mm 2 mps 720 mmHg 75%
12:00 +29°C° 0.5 mm 3 mps 720 mmHg 74%
13:00 +29°C° 0.5 mm 3 mps 719 mmHg 73%
14:00 +28°C° 0.5 mm 2 mps 719 mmHg 78%
15:00 +27°C° 0.5 mm 2 mps 719 mmHg 82%
16:00 +26°C° 0.5 mm 2 mps 719 mmHg 86%
17:00 +26°C° 0.1 mm 2 mps 719 mmHg 89%
18:00 +25°C° 0.1 mm 1 mps 719 mmHg 92%
19:00 +24°C° 0.1 mm 1 mps 719 mmHg 95%
20:00 +24°C° 0 mm 1 mps 719 mmHg 95%
21:00 +24°C° 0 mm 1 mps 720 mmHg 95%
22:00 +24°C° 0 mm 1 mps 720 mmHg 95%
23:00 +24°C° 0 mm 1 mps 719 mmHg 95%
Show more